Dallas/Ft Worth, TX

7:29 PM CST on November 19, 2019 (GMT -0600)
Dallas-Fort Worth International

Weather History for KDFW - September, 2019

Change the Weather History Date:

Thursday, September 5, 2019

  Actual Average Record
Temperature  
Mean Temperature 86 °F 82 °F  
Max Temperature 98 °F 92 °F 104 °F (1913)
Min Temperature 75 °F 71 °F 55 °F (1974)
Degree Days  
Heating Degree Days 0 0  
Month to date heating degree days 0 0  
Since 1 July heating degree days 0 0  
Cooling Degree Days 22 17  
Month to date cooling degree days 105 87  
Year to date cooling degree days 2307 2269  
Growing Degree Days 36 (Base 50)    
Moisture  
Dew Point 65 °F    
Average Humidity 50    
Maximum Humidity 82    
Minimum Humidity 30    
Precipitation  
Precipitation 0.00 in 0.09 in 7.74 in (1932)
Month to date precipitation 0.00 0.47  
Year to date precipitation 27.13 24.58  
Sea Level Pressure  
Sea Level Pressure 30.03 in    
Wind  
Wind Speed 2 mph ()    
Max Wind Speed 10 mph    
Max Gust Speed 14 mph    
Visibility 10.0 miles    
Events      
T = Trace of Precipitation, MM = Missing Value Source: Averaged Metar Reports

Daily Weather History Graph

Daily Weather History Graph

Search for Another Location

Airport or City:

Astronomy

Sep. 05, 2019 Rise Set
Actual Time 7:05 AM CDT 7:48 PM CDT
Civil Twilight 6:40 AM CDT 8:12 PM CDT
Nautical Twilight 6:10 AM CDT 8:42 PM CDT
Astronomical Twilight 5:40 AM CDT 9:12 PM CDT
Moon 1:51 PM CDT (9/5) No Moon Set
Length of Visible Light 13h 32m
Length of Day
12h 42m
Waxing Crescent, 45% of the Moon is Illuminated
Sep 5
Waxing Crescent
Sep 5
First Quarter
Sep 13
Full
Sep 21
Last Quarter
Sep 28
New

Hourly Weather History & Observations

Time (CDT) Temp. Heat Index Dew Point Humidity Pressure Visibility Wind Dir Wind Speed Gust Speed Precip Events Conditions
12:53 AM 82.9 °F 84.6 °F 64.9 °F 54% 30.02 in 10.0 mi Calm Calm - N/A   Partly Cloudy
1:53 AM 82.9 °F 84.6 °F 64.9 °F 54% 30.02 in 10.0 mi Calm Calm - N/A   Scattered Clouds
2:53 AM 80.1 °F 82.1 °F 66.0 °F 62% 30.02 in 10.0 mi Calm Calm - N/A   Scattered Clouds
3:53 AM 81.0 °F 83.0 °F 66.0 °F 60% 30.02 in 10.0 mi Calm Calm - N/A   Scattered Clouds
4:53 AM 78.1 °F - 66.9 °F 68% 30.02 in 10.0 mi NNW 5.8 mph - N/A   Partly Cloudy
5:53 AM 75.9 °F - 68.0 °F 76% 30.04 in 10.0 mi North 3.5 mph - N/A   Partly Cloudy
6:53 AM 77.0 °F - 70.0 °F 79% 30.05 in 10.0 mi NNW 4.6 mph - N/A   Partly Cloudy
7:53 AM 75.9 °F - 69.1 °F 79% 30.08 in 10.0 mi Calm Calm - N/A   Partly Cloudy
8:53 AM 82.0 °F 86.3 °F 71.1 °F 69% 30.09 in 10.0 mi Calm Calm - N/A   Partly Cloudy
9:53 AM 86.0 °F 88.8 °F 66.9 °F 53% 30.10 in 10.0 mi WSW 6.9 mph - N/A   Scattered Clouds
10:53 AM 89.1 °F 92.1 °F 66.9 °F 48% 30.10 in 10.0 mi WSW 8.1 mph - N/A   Partly Cloudy
11:53 AM 91.9 °F 94.5 °F 66.0 °F 42% 30.09 in 10.0 mi West 4.6 mph - N/A   Scattered Clouds
12:53 PM 93.0 °F 94.2 °F 63.0 °F 37% 30.08 in 10.0 mi Calm Calm - N/A   Mostly Cloudy
1:53 PM 95.0 °F 95.6 °F 62.1 °F 33% 30.06 in 10.0 mi Variable 3.5 mph - N/A   Scattered Clouds
2:53 PM 97.0 °F 98.3 °F 63.0 °F 32% 30.03 in 10.0 mi Calm Calm - N/A   Scattered Clouds
3:53 PM 96.1 °F 96.4 °F 61.0 °F 31% 30.01 in 10.0 mi Calm Calm - N/A   Scattered Clouds
4:53 PM 97.0 °F 97.4 °F 61.0 °F 30% 29.99 in 10.0 mi East 6.9 mph - N/A   Scattered Clouds
5:53 PM 97.0 °F 97.4 °F 61.0 °F 30% 29.97 in 10.0 mi Calm Calm - N/A   Partly Cloudy
6:53 PM 93.9 °F 94.0 °F 61.0 °F 33% 29.97 in 10.0 mi East 5.8 mph - N/A   Partly Cloudy
7:53 PM 89.1 °F 89.3 °F 62.1 °F 40% 29.97 in 10.0 mi ESE 6.9 mph - N/A   Partly Cloudy
8:53 PM 84.0 °F 84.5 °F 62.1 °F 47% 29.99 in 10.0 mi East 4.6 mph - N/A   Partly Cloudy
9:53 PM 86.0 °F 86.1 °F 61.0 °F 43% 30.00 in 10.0 mi ESE 5.8 mph - N/A   Partly Cloudy
10:53 PM 84.0 °F 84.9 °F 63.0 °F 49% 30.00 in 10.0 mi SSE 5.8 mph - N/A   Clear
11:53 PM 84.0 °F 84.9 °F 63.0 °F 49% 30.00 in 10.0 mi Calm Calm - N/A   Clear